735  
ASUS44 KJAN 211510  
RWRMS  
 
MISSISSIPPI HOURLY WEATHER ROUNDUP  
NATIONAL WEATHER SERVICE JACKSON MS  
1000 AM CDT SAT MAY 21 2022  
 
NOTE: "FAIR: INDICATES FEW OR NO CLOUDS BELOW 12,000 FEET WITH NO  
SIGNIFICANT WEATHER AND/OR S TO VISIBILITY
.  
 
MSZ001>002-007>008-010>013-018>021-025>028-034>036-211600-  
NORTHWEST MISSISSIPPI  
 
CITY SKY/WX TMP DP RH WIND PRES REMARKS
 
BATESVILLE CLOUDY 82 72 69 S13 30.01S  
CLARKSDALE PTSUNNY 84 75 74 S14 30.01S HX 92  
GREENWOOD CLOUDY 84 73 69 S10G22 30.02R HX 90  
GREENVILLE MOSUNNY 86 73 65 S18G25 29.98F HX 93  
OLIVE BRANCH PTSUNNY 79 73 83 S13 30.02R  
OXFORD PTSUNNY 79 70 73 S12G17 30.05R  
WINONA PTSUNNY 80 72 77 S6 30.04R  

 
 
MSZ003>006-009-014>017-022>024-029>033-037>039-211600-  
NORTHEAST MISSISSIPPI  
 
CITY SKY/WX TMP DP RH WIND PRES REMARKS
 
ABERDEEN CLOUDY 84 75 74 S8 30.06R HX 92  
COLUMBUS AFB MOSUNNY 84 73 67 CALM 30.03R HX 90  
CORINTH MOSUNNY 81 70 69 S14 30.04S  
GOLDN TRIANGLE PTSUNNY 83 73 72 S16 30.06R  
STARKVILLE PTSUNNY 82 73 74 S7G15 30.04R  
TUPELO MOSUNNY 83 71 67 S12 30.05R  

 
 
MSZ040-058-211600-  
CENTRAL MISSISSIPPI  
 
CITY SKY/WX TMP DP RH WIND PRES REMARKS
 
JACKSON INTL PTSUNNY 84 73 69 S12 30.03R HX 90  
JACKSON HAWKNS CLOUDY 85 73 67 S13 30.03R HX 91  
MADISON PTSUNNY 84 75 74 VRB6G15 30.03R HX 92  
MERIDIAN KEY PTSUNNY 84 74 71 S13G18 30.07R HX 91  
MERIDIAN NAS PTSUNNY 84 74 71 SE8G17 30.08R HX 91  
PRESTON MOSUNNY 83 72 69 S13G20 30.10R  
RAYMOND CLOUDY 84 84 100 S7G17 30.02R HX 104  
VICKSBURG VKS PTSUNNY 84 77 79 S9G17 29.99R HX 94  

 
 
MSZ059>079-211600-  
SOUTH MISSISSIPPI  
 
CITY SKY/WX TMP DP RH WIND PRES REMARKS
 
BROOKHAVEN PTSUNNY 84 84 100 S12 30.03R HX 104  
HATTIESBURG MOSUNNY 87 74 64 SE14 30.05R HX 95  
LAUREL PTSUNNY 85 74 69 S10 30.05R HX 93  
MCCOMB MOSUNNY 86 74 67 S12 30.01R HX 94  
NATCHEZ CLOUDY 85 74 69 SE15 29.99R HX 92  
PINE BELT PTSUNNY 84 75 74 S10 30.07R HX 92  

 
 
MSZ080>082-211600-  
COASTAL MISSISSIPPI  
 
CITY SKY/WX TMP DP RH WIND PRES REMARKS
 
BAY ST LOUIS PTSUNNY 84 75 74 S17 30.03R HX 92  
BILOXI MOSUNNY 86 77 74 SE13 30.04R HX 97  
PASCAGOULA MOSUNNY 89 75 63 S18 30.05R HX 99  
GULFPORT PTSUNNY 87 78 74 S15 30.04R HX 100  

 
 
LAZ007>009-015>016-023>026-211600-  
NORTHEAST LOUISIANA  
 
CITY SKY/WX TMP DP RH WIND PRES REMARKS
 
TALLULAH/VBURG PTSUNNY 88 74 63 S12G20 29.99S HX 96  
VIDALIA PTSUNNY 87 75 66 SE10 29.97S HX 97  

 
 
 
CLICK HERE TO GO TO PREVIOUS BULLETINS.

The Nexlab MS Page Main Text Page